GW4174 Weather Reports


time (UTC)temp
C
wind
direction
speed
KPH
gust
KPH
rain 1hr
cm
rain 24hr
cm
rain mn
cm
humidity
%
barometer
mb
20260503030014 15 54 0.0 1.6 0.00 0.00 0.00 50 1014.3
20260503024512 15 352 0.0 0.0 0.00 0.00 0.00 49 1014.3
20260503023019 17 352 1.6 1.6 0.00 0.00 0.00 46 1014.2
20260503021524 18 72 0.0 1.6 0.00 0.00 0.00 46 1014.3
20260503020006 18 61 0.0 1.6 0.00 0.00 0.00 44 1014.4
20260503014508 18 315 0.0 0.0 0.00 0.00 0.00 39 1014.4
20260503013024 18 314 0.0 0.0 0.00 0.00 0.00 38 1014.4
20260503011522 20 316 0.0 1.6 0.00 0.00 0.00 33 1014.4
20260503010023 20 49 1.6 3.2 0.00 0.00 0.00 33 1014.5
20260503004506 20 293 0.0 3.2 0.00 0.00 0.00 34 1014.5
20260503003011 20 335 1.6 4.8 0.00 0.00 0.00 31 1014.6
20260503001516 20 117 1.6 6.4 0.00 0.00 0.00 34 1014.6
20260503000020 19 120 1.6 4.8 0.00 0.00 0.00 40 1014.7
20260502234521 20 120 4.8 6.4 0.00 0.00 0.00 44 1014.6
20260502233007 20 158 1.6 8.0 0.00 0.00 0.00 40 1014.8
20260502231518 19 159 8.0 16.1 0.00 0.00 0.00 37 1014.9
20260502230020 20 171 8.0 12.9 0.00 0.00 0.00 34 1015.1
20260502224523 21 170 1.6 4.8 0.00 0.00 0.00 34 1015.3
20260502223028 21 229 0.0 9.7 0.00 0.00 0.00 31 1015.4
20260502221508 21 181 4.8 8.0 0.00 0.00 0.00 30 1015.6
20260502220016 21 247 4.8 8.0 0.00 0.00 0.00 31 1015.8
20260502214524 21 268 4.8 11.3 0.00 0.00 0.00 28 1015.8
20260502213024 21 275 6.4 9.7 0.00 0.00 0.00 29 1016.0
20260502211526 21 285 3.2 12.9 0.00 0.00 0.00 26 1016.2
20260502210011 21 238 4.8 11.3 0.00 0.00 0.00 27 1016.4
20260502204517 21 283 8.0 11.3 0.00 0.00 0.00 28 1016.6
20260502203023 21 190 1.6 9.7 0.00 0.00 0.00 30 1016.8
20260502201530 20 22 3.2 9.7 0.00 0.00 0.00 32 1017.0
20260502200026 20 272 1.6 6.4 0.00 0.00 0.00 33 1017.1
20260502194514 20 274 1.6 9.7 0.00 0.00 0.00 33 1017.5
20260502193020 19 201 0.0 11.3 0.00 0.00 0.00 38 1017.6
20260502191522 19 159 4.8 9.7 0.00 0.00 0.00 37 1017.7
20260502190028 18 266 1.6 8.0 0.00 0.00 0.00 40 1017.9
20260502184527 18 307 3.2 11.3 0.00 0.00 0.00 37 1018.1
20260502183028 18 83 0.0 9.7 0.00 0.00 0.00 37 1018.2
20260502181521 17 253 4.8 9.7 0.00 0.00 0.00 41 1018.4
20260502163013 14 1 1.6 6.4 0.00 0.00 0.00 51 1019.1
20260502161517 13 69 1.6 6.4 0.00 0.00 0.00 56 1019.1
20260502151511 10 101 0.0 4.8 0.00 0.00 0.00 70 1019.0
20260502123030 3 291 0.0 3.2 0.00 0.00 0.00 86 1018.2
20260502121522 3 59 0.0 0.0 0.00 0.00 0.00 86 1018.2
20260502114526 4 11 0.0 1.6 0.00 0.00 0.00 84 1018.3
20260502113014 3 8 0.0 0.0 0.00 0.00 0.00 86 1018.3
20260502111520 3 8 0.0 3.2 0.00 0.00 0.00 84 1018.3
20260502110022 4 278 0.0 3.2 0.00 0.00 0.00 82 1018.2
20260502104525 4 315 0.0 3.2 0.00 0.00 0.00 83 1018.1
20260502103031 4 92 0.0 0.0 0.00 0.00 0.00 81 1017.8
20260502101513 4 129 0.0 3.2 0.00 0.00 0.00 80 1017.6
20260502091512 6 333 0.0 0.0 0.00 0.00 0.00 77 1017.4
20260502071510 7 118 0.0 0.0 0.00 0.00 0.00 69 1017.2
20260502070012 8 62 0.0 8.0 0.00 0.00 0.00 68 1017.1
20260502064512 8 63 0.0 0.0 0.00 0.00 0.00 64 1017.0
20260502063002 8 63 0.0 0.0 0.00 0.00 0.00 65 1017.1
20260502061504 10 282 1.6 3.2 0.00 0.00 0.00 63 1017.0
20260502060008 10 231 0.0 3.2 0.00 0.00 0.00 59 1016.9
20260502054521 10 18 3.2 3.2 0.00 0.00 0.00 57 1016.8
20260502053018 11 57 0.0 1.6 0.00 0.00 0.00 57 1016.7
20260502051523 11 70 0.0 0.0 0.00 0.00 0.00 60 1016.6
20260502050013 11 280 0.0 1.6 0.00 0.00 0.00 60 1016.5
20260502044507 12 279 0.0 3.2 0.00 0.00 0.00 52 1016.4
20260502043014 13 288 0.0 12.9 0.00 0.00 0.00 49 1016.4
20260502041525 13 285 0.0 3.2 0.00 0.00 0.00 45 1016.2
20260502040022 14 91 0.0 1.6 0.00 0.00 0.00 45 1016.0
20260502034511 15 286 0.0 3.2 0.00 0.00 0.00 45 1015.9
20260502033017 16 95 0.0 1.6 0.00 0.00 0.00 41 1015.8
20260502031517 16 79 0.0 4.8 0.00 0.00 0.00 40 1015.6